Location: Astronomy Club of Akron Observatory
(40.9700°N, 81.5606°W)
Time: 02:17:40
(UTC-04:00)

Cosmos 1441 Rocket - Visible Passes

Search period start: 25 August 2016 00:00
Search period end: 04 September 2016 00:00
Orbit: 500 x 544 km, 81.1° (Epoch: 23 August)

Date Brightness Start Highest point End Pass type
(mag) Time Alt. Az. Time Alt. Az. Time Alt. Az.
28 Aug 6.6 00:16:44 10° NNW 00:16:47 10° NNW 00:16:47 10° NNW visible
29 Aug 6.5 00:03:44 10° NNW 00:03:56 11° NNW 00:03:56 11° NNW visible
29 Aug 6.4 23:50:44 10° NNW 23:51:06 12° NNW 23:51:06 12° NNW visible
30 Aug 6.3 23:37:44 10° NNW 23:38:16 13° NNW 23:38:16 13° NNW visible
31 Aug 6.2 23:24:45 10° NNW 23:25:28 15° NNW 23:25:28 15° NNW visible
01 Sep 6.0 23:11:47 10° NNW 23:12:40 16° NNW 23:12:40 16° NNW visible
02 Sep 5.8 22:58:49 10° N 22:59:52 18° N 22:59:52 18° N visible
03 Sep 5.6 22:45:52 10° N 22:47:06 20° N 22:47:06 20° N visible
